IW1QQG-13 Weather Reports


time (UTC)temp
C
wind
direction
speed
KPH
gust
KPH
rain 1hr
cm
rain 24hr
cm
rain mn
cm
humidity
%
barometer
mb
20260507150607 18 230 3.2 4.8 0.00 0.00 0.00 63 1013.9
20260507145607 18 203 3.2 4.8 0.00 0.00 0.00 61 1013.9
20260507144608 19 202 1.6 1.6 0.00 0.00 0.00 65 1013.9
20260507143607 18 47 4.8 6.4 0.00 0.00 0.00 66 1014.2
20260507142608 19 170 4.8 4.8 0.00 0.00 0.00 63 1014.2
20260507141610 19 169 1.6 1.6 0.00 0.00 0.00 63 1014.2
20260507140611 20 216 3.2 3.2 0.00 0.00 0.00 59 1014.6
20260507135607 20 133 6.4 8.0 0.00 0.00 0.00 58 1014.6
20260507134607 19 109 1.6 3.2 0.00 0.00 0.00 59 1014.6
20260507133607 19 100 3.2 3.2 0.00 0.00 0.00 60 1014.6
20260507132607 19 180 4.8 4.8 0.00 0.00 0.00 61 1014.6
20260507131607 20 173 1.6 3.2 0.00 0.00 0.00 59 1014.9
20260507130607 20 133 4.8 4.8 0.00 0.00 0.00 60 1014.9
20260507125607 20 194 6.4 9.7 0.00 0.00 0.00 64 1014.9
20260507124608 19 128 3.2 4.8 0.00 0.00 0.00 63 1014.9
20260507123607 19 139 4.8 4.8 0.00 0.00 0.00 64 1014.6
20260507122607 19 96 3.2 4.8 0.00 0.00 0.00 65 1014.6
20260507121607 20 253 1.6 3.2 0.00 0.00 0.00 66 1014.6
20260507120607 20 111 4.8 4.8 0.00 0.00 0.00 66 1014.6
20260507115607 20 148 3.2 4.8 0.00 0.00 0.00 66 1014.6
20260507114607 20 122 4.8 4.8 0.00 0.00 0.00 68 1014.2
20260507113607 20 144 4.8 4.8 0.00 0.00 0.00 67 1014.6
20260507112613 20 185 3.2 4.8 0.00 0.00 0.00 70 1014.6
20260507111607 20 169 0.0 4.8 0.00 0.00 0.00 70 1014.6
20260507110607 20 198 3.2 3.2 0.00 0.00 0.00 68 1014.6
20260507105607 20 170 4.8 4.8 0.00 0.00 0.00 67 1014.6
20260507104607 20 161 4.8 6.4 0.00 0.00 0.00 67 1014.6
20260507103607 19 182 3.2 4.8 0.00 0.00 0.00 66 1014.6
20260507102607 20 80 4.8 4.8 0.00 0.00 0.00 67 1014.6
20260507101607 20 198 4.8 6.4 0.00 0.00 0.00 67 1014.6
20260507100607 20 0 4.8 6.4 0.00 0.00 0.00 66 1014.9
20260507095607 20 175 4.8 6.4 0.00 0.00 0.00 68 1014.6
20260507094607 19 357 3.2 3.2 0.00 0.00 0.00 68 1014.6
20260507093607 18 174 3.2 4.8 0.00 0.00 0.00 72 1014.6
20260507091607 18 90 3.2 3.2 0.00 0.00 0.00 71 1014.6
20260507090607 18 253 4.8 4.8 0.00 0.00 0.00 70 1014.6
20260507085607 18 180 6.4 8.0 0.00 0.00 0.00 71 1014.6
20260507084607 18 90 4.8 4.8 0.00 0.00 0.00 71 1014.6
20260507083607 19 148 1.6 3.2 0.00 0.00 0.00 68 1014.2
20260507082607 18 184 3.2 4.8 0.00 0.00 0.00 68 1014.2
20260507081607 18 152 4.8 4.8 0.00 0.00 0.00 67 1014.2
20260507080607 19 95 0.0 1.6 0.00 0.00 0.00 66 1014.2
20260507075607 19 199 3.2 4.8 0.00 0.00 0.00 65 1013.9
20260507074607 19 189 1.6 3.2 0.00 0.00 0.00 64 1014.2
20260507073607 18 154 3.2 4.8 0.00 0.00 0.00 63 1014.2
20260507072607 18 181 4.8 4.8 0.00 0.00 0.00 66 1013.9
20260507071607 18 225 1.6 3.2 0.00 0.00 0.00 66 1013.9
20260507070607 18 172 3.2 4.8 0.00 0.00 0.00 66 1013.9
20260507065607 17 153 3.2 3.2 0.00 0.00 0.00 66 1013.5
20260507064607 17 132 1.6 4.8 0.00 0.00 0.00 69 1013.5
20260507063607 18 181 1.6 1.6 0.00 0.00 0.00 69 1013.5
20260507062607 17 157 1.6 1.6 0.00 0.00 0.00 71 1013.5
20260507061607 16 25 3.2 4.8 0.00 0.00 0.00 71 1013.2
20260507060607 16 21 4.8 4.8 0.00 0.00 0.00 72 1013.2
20260507055607 15 26 4.8 6.4 0.00 0.00 0.00 71 1013.2
20260507054607 15 0 4.8 4.8 0.00 0.00 0.00 70 1013.2
20260507053607 15 2 1.6 3.2 0.00 0.00 0.00 74 1012.9
20260507052607 15 272 3.2 3.2 0.00 0.00 0.00 72 1012.9
20260507051607 15 339 1.6 3.2 0.00 0.00 0.00 72 1012.9
20260507050607 13 339 3.2 3.2 0.00 0.00 0.00 77 1012.5
20260507045607 12 279 3.2 3.2 0.00 0.00 0.00 81 1012.5
20260507044607 11 202 1.6 1.6 0.00 0.00 0.00 85 1012.5
20260507043607 11 201 0.0 0.0 0.00 0.00 0.00 86 1012.2
20260507042607 12 232 1.6 3.2 0.00 0.00 0.00 83 1012.2
20260507041607 12 219 0.0 1.6 0.00 0.00 0.00 83 1012.2
20260507040607 12 226 1.6 1.6 0.00 0.00 0.00 84 1012.2
20260507035607 11 314 1.6 1.6 0.00 0.00 0.00 88 1012.2
20260507034607 12 224 0.0 1.6 0.00 0.00 0.00 86 1012.2
20260507033607 12 213 0.0 0.0 0.00 0.00 0.00 85 1011.9
20260507032607 11 317 1.6 1.6 0.00 0.00 0.00 88 1011.9
20260507031607 11 202 3.2 4.8 0.00 0.00 0.00 88 1011.9
20260507030608 11 241 1.6 1.6 0.00 0.00 0.00 90 1011.9
20260507025607 12 207 1.6 1.6 0.00 0.00 0.00 89 1011.9
20260507024607 11 233 0.0 1.6 0.00 0.00 0.00 89 1011.9
20260507023607 12 203 0.0 0.0 0.00 0.00 0.00 86 1011.9
20260507022607 12 265 3.2 4.8 0.00 0.00 0.00 80 1011.9
20260507021607 12 250 1.6 3.2 0.00 0.00 0.00 80 1011.9
20260507020607 12 239 4.8 4.8 0.00 0.00 0.00 82 1011.9
20260507015607 12 219 1.6 1.6 0.00 0.00 0.00 82 1011.5
20260507014607 12 214 0.0 0.0 0.00 0.00 0.00 80 1011.5
20260507013607 12 233 1.6 1.6 0.00 0.00 0.00 82 1011.2
20260507012607 13 198 0.0 0.0 0.00 0.00 0.00 77 1011.2
20260507011607 13 358 4.8 6.4 0.00 0.00 0.00 76 1011.5
20260507010607 12 224 0.0 1.6 0.00 0.00 0.00 80 1011.5
20260507005607 12 224 1.6 1.6 0.00 0.00 0.00 80 1011.5
20260507004607 12 211 0.0 0.0 0.00 0.00 0.00 79 1011.5
20260507003607 12 203 0.0 0.0 0.00 0.00 0.00 81 1011.5
20260507002607 13 186 3.2 4.8 0.00 0.00 0.00 75 1011.5
20260507001607 13 347 3.2 3.2 0.00 0.00 0.00 78 1011.5
20260507000607 13 206 0.0 1.6 0.00 0.00 0.00 80 1011.5
20260506235607 13 194 0.0 3.2 0.00 0.00 0.00 78 1011.5
20260506234607 13 315 3.2 3.2 0.00 0.00 0.00 77 1011.5
20260506233607 13 209 1.6 3.2 0.00 0.00 0.00 80 1011.5
20260506232607 13 332 1.6 1.6 0.00 0.00 0.00 80 1011.5
20260506231607 13 214 1.6 3.2 0.00 0.00 0.00 79 1011.5
20260506225607 13 259 4.8 6.4 0.00 0.00 0.36 76 1011.5
20260506224607 13 270 4.8 4.8 0.00 0.00 0.36 80 1011.5
20260506223607 12 219 1.6 1.6 0.00 0.00 0.36 84 1011.5
20260506222607 12 218 0.0 0.0 0.00 0.00 0.36 84 1011.2
20260506221607 13 204 0.0 0.0 0.00 0.00 0.36 84 1011.2
20260506220607 13 357 1.6 3.2 0.00 0.00 0.36 82 1011.2
20260506215607 13 281 0.0 0.0 0.00 0.00 0.36 86 1011.2
20260506214607 13 195 0.0 1.6 0.00 0.00 0.36 91 1011.2
20260506213607 13 213 1.6 1.6 0.00 0.00 0.36 90 1011.5
20260506212605 13 217 1.6 1.6 0.00 0.00 0.36 89 1011.5
20260506211604 13 217 1.6 3.2 0.00 0.00 0.36 88 1011.5
20260506210604 13 204 0.0 0.0 0.00 0.00 0.36 88 1011.2
20260506205604 13 234 0.0 0.0 0.00 0.00 0.36 87 1011.5
20260506204604 13 207 1.6 3.2 0.00 0.00 0.36 85 1011.5
20260506203604 13 329 1.6 4.8 0.00 0.00 0.36 87 1011.5
20260506201608 13 240 0.0 0.0 0.00 0.00 0.36 89 1011.2
20260506200604 13 214 0.0 0.0 0.00 0.00 0.36 89 1011.2
20260506195604 14 230 1.6 1.6 0.00 0.00 0.36 87 1011.2
20260506194604 14 197 1.6 1.6 0.00 0.00 0.36 86 1010.8
20260506193604 14 182 1.6 3.2 0.00 0.00 0.36 86 1010.8
20260506192604 14 176 1.6 1.6 0.00 0.00 0.36 85 1010.5
20260506191604 14 190 0.0 1.6 0.00 0.00 0.36 84 1010.5
20260506190604 14 203 1.6 3.2 0.00 0.00 0.36 84 1010.2
20260506185604 14 220 1.6 1.6 0.00 0.00 0.36 84 1010.2
20260506184604 14 207 1.6 1.6 0.00 0.00 0.36 83 1010.2
20260506183604 15 180 1.6 3.2 0.00 0.00 0.36 82 1009.8
20260506182604 15 193 0.0 0.0 0.00 0.00 0.36 82 1009.8
20260506181604 15 202 1.6 3.2 0.00 0.00 0.36 79 1009.8
20260506180604 15 249 0.0 1.6 0.00 0.00 0.36 79 1009.8
20260506174604 15 217 0.0 0.0 0.00 0.00 0.36 80 1009.8
20260506173606 15 221 0.0 1.6 0.00 0.00 0.36 77 1009.5
20260506172604 16 203 1.6 1.6 0.00 0.00 0.36 77 1009.5
20260506171604 16 202 0.0 1.6 0.00 0.00 0.36 77 1009.5
20260506170604 16 186 0.0 1.6 0.00 0.00 0.36 75 1009.8
20260506165604 16 115 0.0 1.6 0.00 0.00 0.36 75 1009.8
20260506164604 17 197 3.2 3.2 0.00 0.00 0.36 71 1009.8
20260506163604 17 178 1.6 1.6 0.00 0.00 0.36 66 1009.5
20260506162604 17 32 1.6 3.2 0.00 0.00 0.36 65 1009.5
20260506160604 18 194 0.0 1.6 0.00 0.00 0.36 64 1009.5
20260506155604 18 161 3.2 3.2 0.00 0.00 0.36 64 1009.5
20260506154604 18 158 3.2 4.8 0.00 0.00 0.36 63 1009.5
20260506153604 18 204 1.6 3.2 0.00 0.00 0.36 63 1009.5
20260506152604 18 66 4.8 6.4 0.00 0.00 0.36 63 1009.5
20260506151604 18 200 3.2 3.2 0.00 0.00 0.36 63 1009.5